TimePST,TemperatureF,Dew PointF,Humidity,Sea Level PressureIn,VisibilityMPH,Wind Direction,Wind SpeedMPH,Gust SpeedMPH,PrecipitationIn,Events,Conditions,WindDirDegrees,DateUTC
12:56 AM,45.0,27.1,50,30.10,10.0,SSE,3.5,-,N/A,,Clear,150,2013-12-22 08:56:00
1:56 AM,43.9,26.1,50,30.12,10.0,West,4.6,-,N/A,,Clear,260,2013-12-22 09:56:00
2:56 AM,39.9,26.1,58,30.14,10.0,South,4.6,-,N/A,,Clear,180,2013-12-22 10:56:00
3:56 AM,36.0,26.1,67,30.15,10.0,South,5.8,-,N/A,,Clear,170,2013-12-22 11:56:00
4:56 AM,36.0,26.1,67,30.17,10.0,SSE,6.9,-,N/A,,Clear,150,2013-12-22 12:56:00
5:56 AM,34.9,26.1,70,30.20,10.0,SW,6.9,-,N/A,,Clear,220,2013-12-22 13:56:00
6:56 AM,34.9,26.1,70,30.23,10.0,South,5.8,-,N/A,,Clear,180,2013-12-22 14:56:00
7:56 AM,37.9,27.1,65,30.27,10.0,South,5.8,-,N/A,,Clear,190,2013-12-22 15:56:00
8:56 AM,47.8,28.0,46,30.27,10.0,SSE,3.5,-,N/A,,Clear,160,2013-12-22 16:56:00
9:56 AM,50.9,26.1,38,30.30,10.0,NNE,4.6,-,N/A,,Clear,30,2013-12-22 17:56:00
10:56 AM,52.9,26.1,35,30.29,10.0,North,5.8,-,N/A,,Clear,10,2013-12-22 18:56:00
11:56 AM,54.0,26.1,34,30.27,10.0,Calm,Calm,-,N/A,,Clear,0,2013-12-22 19:56:00
12:56 PM,55.9,25.2,31,30.25,10.0,Calm,Calm,-,N/A,,Clear,0,2013-12-22 20:56:00
1:56 PM,57.9,25.2,28,30.25,10.0,North,4.6,-,N/A,,Clear,360,2013-12-22 21:56:00
2:56 PM,59.0,25.2,27,30.25,10.0,Calm,Calm,-,N/A,,Clear,0,2013-12-22 22:56:00
3:56 PM,57.9,25.2,28,30.28,10.0,Calm,Calm,-,N/A,,Clear,0,2013-12-22 23:56:00
4:56 PM,52.9,26.1,35,30.30,10.0,Calm,Calm,-,N/A,,Clear,0,2013-12-23 00:56:00
5:56 PM,45.9,28.0,50,30.32,10.0,SSE,4.6,-,N/A,,Clear,160,2013-12-23 01:56:00
6:56 PM,45.0,27.1,50,30.34,10.0,South,4.6,-,N/A,,Clear,180,2013-12-23 02:56:00
7:56 PM,43.0,27.1,54,30.35,10.0,SSE,8.1,-,N/A,,Clear,160,2013-12-23 03:56:00
8:56 PM,41.9,27.1,56,30.35,10.0,South,6.9,-,N/A,,Clear,180,2013-12-23 04:56:00
9:56 PM,41.9,27.1,56,30.38,10.0,South,8.1,-,N/A,,Clear,190,2013-12-23 05:56:00
10:56 PM,39.9,27.1,60,30.38,10.0,South,4.6,-,N/A,,Clear,180,2013-12-23 06:56:00
11:56 PM,39.9,27.1,60,30.38,10.0,South,8.1,-,N/A,,Clear,170,2013-12-23 07:56:00